Terug naar catalogus

STARLINK-6366

ActiefCommunicatieVLEO
NORAD 57380·PAYLOAD·🇺🇸 United States

Gelanceerd Jul 16, 2023 vanaf Cape Canaveral Space Force Station

Loading…

Volgende Passages (komende 24 uur)

TLE

VersSource: CelesTrak SupGP

Epoch: Sep 15, 2026, 02:10 UTC

1 57380C 23099BE  26258.09076389 -.00024124  00000+0 -87394-3 0  2587
2 57380  43.0031 222.8683 0001377 268.4907  62.3122 15.27583458    16

Volg STARLINK-6366 in realtime met AllMySat

Download on the App Store